Melbourne Airport, Australia

5:07 AM AEST on July 26, 2017 (GMT +1000)
Melbourne International

Weather History for YMML - June, 2013

Change the Weather History Date:

Wednesday, June 19, 2013

  Actual Average Record
Temperature  
Mean Temperature 46 °F -  
Max Temperature 55 °F 54 °F 60 °F (2011)
Min Temperature 36 °F 41 °F 33 °F (2002)
Degree Days  
Heating Degree Days 20    
Moisture  
Dew Point 40 °F    
Average Humidity 83    
Maximum Humidity 100    
Minimum Humidity 42    
Precipitation  
Precipitation 0.00 in 0.05 in - ()
Sea Level Pressure  
Sea Level Pressure 30.29 in    
Wind  
Wind Speed 5 mph ()    
Max Wind Speed 13 mph    
Max Gust Speed -    
Visibility 7.2 miles    
Events      
Averages and records for this station are not official NWS values.
T = Trace of Precipitation, MM = Missing Value Source: Averaged Metar Reports

Daily Weather History Graph

Daily Weather History Graph

Search for Another Location

Airport or City:

Trip Planner

Search our weather history database for the weather conditions in past years. The results will help you decide how hot, cold, wet, or windy it might be!

Date:

Astronomy

Jun. 19, 2013 Rise Set
Actual Time 7:35 AM AEST 5:08 PM AEST
Civil Twilight 7:05 AM AEST 5:38 PM AEST
Nautical Twilight 6:32 AM AEST 6:10 PM AEST
Astronomical Twilight 6:01 AM AEST 6:42 PM AEST
Moon 1:35 PM AEST (6/19) 2:22 AM AEST (6/19)
Length of Visible Light 10h 32m
Length of Day
9h 33m
Waxing Gibbous, 74% of the Moon is Illuminated
Jun 19
Waxing Gibbous
Jun 23
Full
Jun 30
Last Quarter
Jul 8
New
Jul 16
First Quarter

Hourly Weather History & Observations

Time (AEST) Temp. Windchill Dew Point Humidity Pressure Visibility Wind Dir Wind Speed Gust Speed Precip Events Conditions
12:00 AM 43 °F - 41 °F 90% 30.25 in 19 mi West 5.8 mph - -   Partly Cloudy
12:00 AM 42.8 °F 39.3 °F 41.0 °F 93% 30.24 in - West 5.8 mph - N/A   Clear
12:30 AM 42.8 °F 39.3 °F 41.0 °F 93% 30.24 in - West 5.8 mph - N/A   Clear
1:00 AM 42 °F - 41 °F 94% 30.25 in - West 4.6 mph - -  
1:00 AM 41.0 °F 38.0 °F 41.0 °F 100% 30.24 in - West 4.6 mph - N/A   Clear
1:30 AM 41.0 °F 37.1 °F 39.2 °F 93% 30.24 in 6.2 mi WNW 5.8 mph - N/A   Mostly Cloudy
2:00 AM 41.0 °F 37.1 °F 41.0 °F 100% 30.24 in 6.2 mi West 5.8 mph - N/A   Partly Cloudy
2:30 AM 41.0 °F - 41.0 °F 100% 30.24 in 6.2 mi Calm Calm - N/A   Partly Cloudy
3:00 AM 39 °F - 39 °F 99% 30.27 in 19 mi Calm Calm - -   Partly Cloudy
3:00 AM 39.2 °F - 39.2 °F 100% 30.24 in 6.2 mi Calm Calm - N/A   Partly Cloudy
3:30 AM 37.4 °F - 37.4 °F 100% 30.24 in 6.2 mi Calm Calm - N/A   Partly Cloudy
4:00 AM 39 °F - 39 °F 98% 30.27 in - Calm Calm - -  
4:00 AM 39.2 °F - 39.2 °F 100% 30.24 in 6.2 mi Calm Calm - N/A   Partly Cloudy
4:30 AM 39.2 °F - 37.4 °F 93% 30.24 in 6.2 mi Calm Calm - N/A   Partly Cloudy
5:00 AM 39.2 °F - 39.2 °F 100% 30.27 in - Calm Calm - N/A   Clear
5:30 AM 39.2 °F 35.0 °F 37.4 °F 93% 30.27 in 6.2 mi WNW 5.8 mph - N/A   Partly Cloudy
6:00 AM 39 °F - 39 °F 98% 30.29 in 6 mi WNW 4.6 mph - -   Haze
6:00 AM 39.2 °F 35.9 °F 39.2 °F 100% 30.27 in 5.6 mi WNW 4.6 mph - N/A   Partly Cloudy
6:30 AM 39.2 °F 37.0 °F 39.2 °F 100% 30.27 in 5.0 mi WNW 3.5 mph - N/A   Partly Cloudy
7:00 AM 39 °F - 38 °F 95% 30.31 in - Calm Calm - -  
7:00 AM 39.2 °F - 37.4 °F 93% 30.30 in 4.3 mi Calm Calm - N/A   Scattered Clouds
7:30 AM 41.0 °F 37.1 °F 39.2 °F 93% 30.30 in 3.1 mi WNW 5.8 mph - N/A   Partly Cloudy
8:00 AM 41.0 °F 37.1 °F 41.0 °F 100% 30.30 in 3.1 mi NW 5.8 mph - N/A   Partly Cloudy
8:30 AM 42.8 °F - 41.0 °F 93% 30.30 in 3.7 mi NW 1.2 mph - N/A   Partly Cloudy
9:00 AM 44 °F - 42 °F 89% 30.34 in 4 mi West 5.8 mph - -   Haze
9:00 AM 44.6 °F 41.4 °F 41.0 °F 87% 30.33 in 4.3 mi West 5.8 mph - N/A   Partly Cloudy
9:30 AM 46.4 °F 43.5 °F 42.8 °F 87% 30.33 in 6.2 mi WNW 5.8 mph - N/A   Partly Cloudy
10:00 AM 47 °F - 45 °F 88% 30.35 in - West 5.8 mph - -  
10:00 AM 48.2 °F - 44.6 °F 87% 30.33 in 6.2 mi West 5.8 mph - N/A   Partly Cloudy
10:30 AM 48.2 °F - 44.6 °F 87% 30.33 in 6.2 mi SW 5.8 mph - N/A   Partly Cloudy
11:00 AM 50.0 °F - 42.8 °F 76% 30.33 in 6.2 mi South 4.6 mph - N/A   Partly Cloudy
11:30 AM 51.8 °F - 42.8 °F 71% 30.33 in 6.2 mi SSE 6.9 mph - N/A   Partly Cloudy
12:00 PM 53 °F - 42 °F 57% 30.32 in 12 mi SSE 5.8 mph - -   Haze
12:00 PM 51.8 °F - 42.8 °F 71% 30.30 in 6.2 mi SSE 5.8 mph - N/A   Partly Cloudy
12:30 PM 53.6 °F - 41.0 °F 62% 30.30 in 6.2 mi ESE 6.9 mph - N/A   Partly Cloudy
1:00 PM 54 °F - 38 °F 43% 30.31 in - SSE 6.9 mph - -  
1:00 PM 53.6 °F - 37.4 °F 54% 30.30 in 6.2 mi SSE 6.9 mph - N/A   Scattered Clouds
1:30 PM 55.4 °F - 39.2 °F 54% 30.27 in 6.2 mi South 8.1 mph - N/A   Scattered Clouds
2:00 PM 55.4 °F - 37.4 °F 51% 30.27 in 6.2 mi SSE 12.7 mph - N/A   Scattered Clouds
2:30 PM 53.6 °F - 39.2 °F 58% 30.27 in 6.2 mi SSE 12.7 mph - N/A   Scattered Clouds
3:00 PM 54 °F - 38 °F 42% 30.29 in 19 mi South 10.4 mph - -   Partly Cloudy
3:00 PM 53.6 °F - 37.4 °F 54% 30.27 in 6.2 mi South 10.4 mph - N/A   Partly Cloudy
3:30 PM 53.6 °F - 39.2 °F 58% 30.27 in 6.2 mi South 11.5 mph - N/A   Scattered Clouds
4:00 PM 53 °F - 38 °F 47% 30.30 in - South 9.2 mph - -  
4:00 PM 53.6 °F - 39.2 °F 58% 30.27 in 6.2 mi South 9.2 mph - N/A   Scattered Clouds
4:30 PM 51.8 °F - 39.2 °F 62% 30.27 in 6.2 mi South 9.2 mph - N/A   Mostly Cloudy
5:00 PM 50.0 °F - 39.2 °F 66% 30.27 in 6.2 mi South 8.1 mph - N/A   Scattered Clouds
5:30 PM 48.2 °F - 39.2 °F 71% 30.30 in 6.2 mi South 8.1 mph - N/A   Partly Cloudy
6:00 PM 47 °F - 39 °F 67% 30.32 in 19 mi SSW 5.8 mph - -   Partly Cloudy
6:00 PM 46.4 °F 43.5 °F 39.2 °F 76% 30.30 in 6.2 mi SSW 5.8 mph - N/A   Partly Cloudy
6:30 PM 44.6 °F 41.4 °F 39.2 °F 81% 30.30 in 6.2 mi SW 5.8 mph - N/A   Partly Cloudy
7:00 PM 45 °F - 41 °F 80% 30.32 in - WSW 5.8 mph - -  
7:00 PM 44.6 °F 41.4 °F 41.0 °F 87% 30.30 in 6.2 mi WSW 5.8 mph - N/A   Partly Cloudy
7:30 PM 44.6 °F 42.2 °F 41.0 °F 87% 30.33 in 6.2 mi SW 4.6 mph - N/A   Partly Cloudy
8:00 PM 42.8 °F 40.1 °F 41.0 °F 93% 30.30 in 6.2 mi WSW 4.6 mph - N/A   Partly Cloudy
8:30 PM 42.8 °F 39.3 °F 41.0 °F 93% 30.33 in 6.2 mi West 5.8 mph - N/A   Partly Cloudy
9:00 PM 42 °F - 40 °F 89% 30.33 in 19 mi West 5.8 mph - -   Partly Cloudy
9:00 PM 42.8 °F 39.3 °F 39.2 °F 87% 30.33 in 6.2 mi West 5.8 mph - N/A   Partly Cloudy
9:30 PM 41.0 °F 37.1 °F 39.2 °F 93% 30.30 in 6.2 mi WSW 5.8 mph - N/A   Partly Cloudy
10:00 PM 42 °F - 39 °F 87% 30.33 in - West 4.6 mph - -  
10:00 PM 42.8 °F 40.1 °F 39.2 °F 87% 30.30 in 6.2 mi West 4.6 mph - N/A   Partly Cloudy
10:30 PM 39.2 °F 35.9 °F 37.4 °F 93% 30.30 in 6.2 mi NW 4.6 mph - N/A   Partly Cloudy
11:00 PM 39.2 °F 37.0 °F 37.4 °F 93% 30.30 in 6.2 mi NW 3.5 mph - N/A   Partly Cloudy
11:30 PM 39.2 °F 35.0 °F 37.4 °F 93% 30.30 in - NW 5.8 mph - N/A   Clear